Darwin, Northern Territory

4:39 PM ACST on February 14, 2016 (GMT +0930)
Darwin

Weather History for 94120 - August, 2013

Change the Weather History Date:

Thursday, August 22, 2013

  Actual Average Record
Temperature  
Mean Temperature 79 °F -  
Max Temperature 87 °F 90 °F - ()
Min Temperature 71 °F 73 °F - ()
Cooling Degree Days 14    
Growing Degree Days 29 (Base 50)    
Moisture  
Dew Point 70 °F    
Average Humidity 73    
Maximum Humidity 100    
Minimum Humidity 41    
Precipitation  
Precipitation 0.01 in 0.02 in - ()
Sea Level Pressure  
Sea Level Pressure 29.89 in    
Wind  
Wind Speed 6 mph ()    
Max Wind Speed 14 mph    
Max Gust Speed -    
Visibility 7.3 miles    
Events Fog , Rain    
T = Trace of Precipitation, MM = Missing Value Source: Averaged Metar Reports

Daily Weather History Graph

Daily Weather History Graph

Search for Another Location

Airport or City:

Trip Planner

Search our weather history database for the weather conditions in past years. The results will help you decide how hot, cold, wet, or windy it might be!

Date:

Astronomy

Aug. 22, 2013 Rise Set
Actual Time 6:56 AM ACST 6:42 PM ACST
Civil Twilight 6:34 AM ACST 7:03 PM ACST
Nautical Twilight 6:09 AM ACST 7:28 PM ACST
Astronomical Twilight 5:45 AM ACST 7:53 PM ACST
Moon 7:50 PM ACST (8/22) 7:28 AM ACST (8/22)
Length of Visible Light 12h 28m
Length of Day
11h 45m
Full, 99% of the Moon is Illuminated
Aug 22
Full
Aug 28
Last Quarter
Sep 5
New
Sep 13
First Quarter
Sep 19
Full

Hourly Weather History & Observations

Time (ACST) Temp. Heat Index Dew Point Humidity Pressure Visibility Wind Dir Wind Speed Gust Speed Precip Events Conditions
12:00 AM 78 °F - 71 °F 74% 29.91 in 19 mi West 8.1 mph - -   Partly Cloudy
12:00 AM 78.8 °F - 71.6 °F 78% 29.89 in - West 8.1 mph - N/A   Clear
12:30 AM 78 °F - 72 °F 78% 29.91 in - WSW 6.9 mph - -  
12:30 AM 77.0 °F - 71.6 °F 83% 29.89 in 6.2 mi WSW 6.9 mph - N/A   Partly Cloudy
1:00 AM 77.0 °F - 73.4 °F 89% 29.89 in 6.2 mi SW 5.8 mph - N/A   Partly Cloudy
1:30 AM 77.0 °F - 73.4 °F 89% 29.89 in 6.2 mi SW 5.8 mph - N/A   Partly Cloudy
2:00 AM 77.0 °F - 73.4 °F 89% 29.89 in 6.2 mi WSW 4.6 mph - N/A   Partly Cloudy
2:30 AM 75.2 °F - 71.6 °F 89% 29.89 in 6.2 mi SW 4.6 mph - N/A   Partly Cloudy
3:00 AM 74 °F - 71 °F 88% 29.89 in 12 mi WSW 4.6 mph - -   Smoke
3:00 AM 73.4 °F - 71.6 °F 94% 29.89 in 6.2 mi SW 4.6 mph - N/A   Partly Cloudy
3:30 AM 73 °F - 71 °F 92% 29.89 in - SW 2.3 mph - -  
3:30 AM 73.4 °F - 71.6 °F 94% 29.89 in 6.2 mi SW 2.3 mph - N/A   Partly Cloudy
4:00 AM 73.4 °F - 71.6 °F 94% 29.89 in 6.2 mi NE 5.8 mph - N/A   Partly Cloudy
4:30 AM 73.4 °F - 71.6 °F 94% 29.89 in 6.2 mi ENE 5.8 mph - N/A   Partly Cloudy
5:00 AM 73.4 °F - 71.6 °F 94% 29.89 in 6.2 mi East 4.6 mph - N/A   Partly Cloudy
5:30 AM 73.4 °F - 71.6 °F 94% 29.89 in 6.2 mi East 5.8 mph - N/A   Partly Cloudy
6:00 AM 72 °F - 71 °F 95% 29.89 in 12 mi East 5.8 mph - -   Smoke
6:00 AM 71.6 °F - 71.6 °F 100% 29.89 in 6.2 mi East 5.8 mph - N/A   Partly Cloudy
6:30 AM 73.4 °F - 71.6 °F 94% 29.89 in 6.2 mi East 4.6 mph - N/A   Partly Cloudy
7:00 AM 73.4 °F - 71.6 °F 94% 29.92 in 6.2 mi East 5.8 mph - N/A Fog Patches of Fog
7:30 AM 73.4 °F - 71.6 °F 94% 29.92 in 6.2 mi ENE 4.6 mph - N/A Fog Patches of Fog
8:00 AM 75.2 °F - 73.4 °F 94% 29.92 in 6.2 mi ENE 4.6 mph - N/A   Partly Cloudy
8:30 AM 78.8 °F - 73.4 °F 83% 29.95 in 6.2 mi NNE 5.8 mph - N/A   Partly Cloudy
9:00 AM 81 °F - 71 °F 65% 29.95 in 12 mi NNE 1.2 mph - -   Smoke
9:00 AM 80.6 °F 84.6 °F 71.6 °F 74% 29.95 in 6.2 mi NNE 1.2 mph - N/A   Scattered Clouds
9:30 AM 82.4 °F 86.3 °F 69.8 °F 66% 29.95 in 6.2 mi SSE 3.5 mph - N/A   Scattered Clouds
10:00 AM 82.4 °F 84.6 °F 66.2 °F 58% 29.95 in 6.2 mi NNE 6.9 mph - N/A   Scattered Clouds
10:30 AM 84.2 °F 87.3 °F 68.0 °F 58% 29.95 in 6.2 mi NNE 5.8 mph - N/A   Scattered Clouds
11:00 AM 86.0 °F 88.2 °F 66.2 °F 51% 29.95 in 6.2 mi ENE 5.8 mph - N/A   Scattered Clouds
11:30 AM 84.2 °F 87.3 °F 68.0 °F 58% 29.92 in 6.2 mi WSW 8.1 mph - N/A   Scattered Clouds
12:00 PM 84.2 °F 87.3 °F 68.0 °F 58% 29.92 in 6.2 mi SW 8.1 mph - N/A   Partly Cloudy
12:30 PM 85 °F - 69 °F 49% 29.91 in - West 5.8 mph - -  
12:30 PM 86.0 °F 89.4 °F 68.0 °F 55% 29.89 in 6.2 mi West 5.8 mph - N/A   Partly Cloudy
1:00 PM 86.0 °F 89.4 °F 68.0 °F 55% 29.89 in 6.2 mi NW 5.8 mph - N/A   Partly Cloudy
1:30 PM 86.0 °F 89.4 °F 68.0 °F 55% 29.86 in 6.2 mi WNW 8.1 mph - N/A   Scattered Clouds
2:00 PM 86.0 °F 90.4 °F 69.8 °F 58% 29.86 in 6.2 mi NW 10.4 mph - N/A   Scattered Clouds
2:30 PM 86.0 °F 89.4 °F 68.0 °F 55% 29.83 in 6.2 mi WNW 11.5 mph - N/A   Scattered Clouds
3:00 PM 86.0 °F 89.4 °F 68.0 °F 55% 29.83 in - NNW 12.7 mph - N/A   Clear
3:30 PM 87 °F - 67 °F 41% 29.83 in - NNW 13.8 mph - -  
3:30 PM 87.8 °F 90.4 °F 66.2 °F 49% 29.83 in - NNW 13.8 mph - N/A   Clear
4:00 PM 86.0 °F 88.2 °F 66.2 °F 51% 29.83 in - North 13.8 mph - N/A   Clear
4:30 PM 84.2 °F 88.4 °F 69.8 °F 62% 29.83 in - NNW 13.8 mph - N/A   Clear
5:00 PM 82.4 °F 85.4 °F 68.0 °F 62% 29.83 in - North 12.7 mph - N/A   Clear
5:30 PM 82.4 °F 85.4 °F 68.0 °F 62% 29.83 in - North 11.5 mph - N/A   Clear
6:00 PM 83 °F - 66 °F 48% 29.83 in 19 mi North 10.4 mph - -   Partly Cloudy
6:00 PM 82.4 °F 84.6 °F 66.2 °F 58% 29.83 in - North 10.4 mph - N/A   Clear
6:30 PM 82 °F - 66 °F 50% 29.83 in - North 9.2 mph - -  
6:30 PM 82.4 °F 84.6 °F 66.2 °F 58% 29.83 in - North 9.2 mph - N/A   Clear
7:00 PM 82.4 °F 84.6 °F 66.2 °F 58% 29.83 in - North 6.9 mph - N/A   Clear
7:30 PM 82.4 °F 84.6 °F 66.2 °F 58% 29.86 in 6.2 mi WSW 6.9 mph - N/A   Scattered Clouds
8:00 PM 80.6 °F 83.2 °F 68.0 °F 65% 29.86 in - South 5.8 mph - N/A   Clear
8:30 PM 80.6 °F 83.9 °F 69.8 °F 70% 29.89 in 6.2 mi SSE 8.1 mph - N/A   Scattered Clouds
9:00 PM 78.8 °F - 64.4 °F 61% 29.89 in - East 6.9 mph - N/A   Clear
9:30 PM 77.0 °F - 66.2 °F 69% 29.89 in - SW 5.8 mph - N/A   Clear
10:00 PM 75.2 °F - 69.8 °F 83% 29.92 in 6.2 mi SW 12.7 mph - N/A Rain Light Rain
10:30 PM 73.4 °F - 71.6 °F 94% 29.92 in 6.2 mi WSW 10.4 mph - N/A Rain Light Rain
11:00 PM 73.4 °F - 69.8 °F 88% 29.92 in - WSW 6.9 mph - N/A   Clear
11:30 PM 73.4 °F - 69.8 °F 88% 29.95 in - SSE 5.8 mph - N/A   Clear